loading
|

ATLAS AGENA B DEB, 3121

Orbit data source: Space-Track

ATLAS AGENA B DEB, 3121 is space debris originally from a launch on Fri, 19 Jul 1963 UTC via an ATLAS AGENA B launch vehicle from the Air Force Western Test Range (AFWTR). Debris objects in space refer to the collection of defunct objects orbiting the Earth. Examples of debris include non-operational satellites, rocket bodies, and fragments generated from explosions, collisions, or faulty payload assembly.

Loading next visibility...
Loading greatness...
ATLAS AGENA B DEB details
Identifier
3121, 1963-030F
Orbit
Active
Last TLE update5 days ago
Origin
Flag of USUSAF SSD (US)
ManufacturerMIT-LL
MissionSpacecraft
Bus & MotorUnknown bus, Unknown motor
Mass8 kg wet, 8 kg dry
Launch date (UTC)
1963-07-19 (61 years ago)
Launch vehicle
ATLAS AGENA B
Launch site
Air Force Western Test Range (AFWTR)
Object type
Payload
Rocket body
Debris
Shape & HBRUnknown
Radar Cross SectionMedium (>0.1 m² and <1 m²)

Expand to show TLE details & history

TLE from 5 days ago
0 ATLAS AGENA B DEB
1 03121U 63030F   24274.53807195 -.00000001  00000-0 -15543-2 0  9999
2 03121  88.3948 243.2055 0032500 331.8234  28.0858  8.57967974153196
Epoch: 2024-09-30T12:54Z
Definitive object data (Epoch: 2024-09-30T12:54:49.416Z)
Latitude0.00002°
Longitude39.73489°
Altitude3,674.249 km
Speed6.307 km/s
True Right ascension16h 12m 49s
True Declination0° 00' 00"
Sunlit
Object was in daylight at TLE epoch
Predictive object data (real-time)
Latitude-65.35142°
Longitude35.94697°
Altitude3,697.885 km
Speed6.3 km/s
Apparent Right ascension23h 50m 03s
Apparent Declination-84° 45' 19"
Sunlit
Object is in daylight
Predictive observer data (real-time)
Local Sidereal Time15:07:14
Azimuth174.544° S
Elevation-43.212°
Doppler factor1
Orbital elements
Apogee3,731.525 km
Perigee3,666.025 km
Semi-major axis10,076.912 km
Eccentricity0.00325
Inclination88.3948°
RAAN243.2055°
Arg. of periapsis331.8234°
True anomaly28.26176°
Mean anomaly28.0858°
Eccentric anomaly28.17372°
Mean motion2.14562 °/min
BSTAR-0.0015543
Period167.78 mins
No data available

ATLAS AGENA B DEB Visibility forecast

Observer location: 39.9160978°, -105.1181434

ATLAS AGENA B DEB is not visible in the next 10 days
Span
Click to sort rows by Start time (UTC) header in descending order
Start Az.
Max El. time (UTC)
Max El. Az.
Max El.
End time (UTC)
End Az.